+ View the NASA Portal
+ Center for Near-Earth Object Studies
IMPORTANT:
The SSD Announcement email list is now available. Major changes are coming in the near future, including possible hostname and/or URL changes. To be notified of such changes, subscribe to this email list.
Please visit
this page
for more details.
Don't show this message again
JPL Small-Body Database Browser
Search:
[
help
]
233549 (2007 JP30)
Classification:
Main-belt Asteroid
SPK-ID:
2233549
[
Ephemeris
|
Orbit Diagram
|
Orbital Elements
|
Mission Design
|
Physical Parameters
|
Discovery Circumstances
|
Close-Approach Data
]
[ show orbit diagram ]
Orbital Elements at Epoch 2458600.5 (2019-Apr-27.0) TDB
Reference:
JPL 11
(heliocentric ecliptic J2000)
Element
Value
Uncertainty (1-sigma)
Units
e
.1381291558183151
4.114e-08
a
2.318535093767818
1.5474e-08
au
q
1.998277798530531
9.5911e-08
au
i
3.156081024829933
5.392e-06
deg
node
137.5019158701938
9.4787e-05
deg
peri
129.6238654442441
9.7762e-05
deg
M
118.8576707799826
2.3654e-05
deg
t
p
2458174.760787865834
(2018-Feb-25.26078787)
8.332e-05
TDB
period
1289.492847727184
3.53
1.2909e-05
3.534e-08
d
yr
n
.2791795244421276
2.7948e-09
deg/d
Q
2.638792389005105
1.7611e-08
au
Orbit Determination Parameters
# obs. used (total)
199
data-arc span
6143 days (16.82 yr)
first obs. used
2001-11-20
last obs. used
2018-09-15
planetary ephem.
DE431
SB-pert. ephem.
SB431-N16
condition code
0
norm. resid. RMS
.56704
source
ORB
producer
Otto Matic
solution date
2018-Oct-03 12:19:59
Additional Information
Earth MOID
= .98365 au
Jupiter MOID
= 2.43738 au
T_jup
= 3.564
[ show covariance matrix ]
[
Ephemeris
|
Orbit Diagram
|
Orbital Elements
|
Mission Design
|
Physical Parameters
|
Discovery Circumstances
|
Close-Approach Data
]
Physical Parameter Table
Parameter
Symbol
Value
Units
Sigma
Reference
Notes
absolute magnitude
H
17.2
n/a
MPO454689
233549 (2007 JP30)
Discovered 2007-May-11 by Mt. Lemmon Survey at Mount Lemmon
Reference:
20100228/Numbers.arc
Last Updated:
2010-03-03
[ show close-approach data ]
[
Ephemeris
|
Orbit Diagram
|
Orbital Elements
|
Mission Design
|
Physical Parameters
|
Discovery Circumstances
|
Close-Approach Data
]
2019-Dec-13 10:54 UT
(server date/time)
Site Manager:
Ryan S. Park
Webmaster
:
Alan B. Chamberlin